Overview Statistics Trail Chart Weather Telemetry Raw packets
 

This is the latest recevied weather packets stored in our database for station/object KO4LCK. If no packets are shown the sender has not sent any weather packets the latest 10 day(s).

<< 39 40 41 42 43 44 45 >>
Time Temp. Humidity Pressure Rain* Wind** Luminosity Snow
1788379874 38.89° C 37% 1018.2 hPa 0 mm - 642 W/m² -
1788379570 38.89° C 37% 1018.1 hPa 0 mm - 591 W/m² -
1788379266 38.89° C 38% 1018.2 hPa 0 mm - 612 W/m² -
1788378961 38.33° C 40% 1018.4 hPa 0 mm - 614 W/m² -
1788378660 38.89° C 39% 1018.4 hPa 0 mm - 644 W/m² -
1788378359 40° C 37% 1018.5 hPa 0 mm - 632 W/m² -
1788378055 39.44° C 40% 1018.7 hPa 0 mm - 640 W/m² -
1788377751 38.89° C 41% 1018.7 hPa 0 mm - 650 W/m² -
1788377450 37.78° C 40% 1018.8 hPa 0 mm - 630 W/m² -
1788377149 37.22° C 41% 1018.7 hPa 0 mm - 662 W/m² -
1788376848 36.11° C 50% 1018.8 hPa 0 mm - 639 W/m² -
1788376544 35° C 46% 1019.1 hPa 0 mm - 361 W/m² -
1788376243 34.44° C 50% 1018.9 hPa 0 mm - 635 W/m² -
1788375939 34.44° C 48% 1019 hPa 0 mm - 173 W/m² -
1788375635 35° C 47% 1019.2 hPa 0 mm - 142 W/m² -
1788375331 35.56° C 46% 1019.2 hPa 0 mm - 129 W/m² -
1788375027 36.67° C 43% 1019.3 hPa 0 mm - 126 W/m² -
1788374727 36.67° C 44% 1019.3 hPa 0 mm - 141 W/m² -
1788374422 37.22° C 42% 1019.3 hPa 0 mm - 686 W/m² -
1788374119 38.33° C 39% 1019.4 hPa 0 mm - 205 W/m² -
1788373815 38.89° C 42% 1019.4 hPa 0 mm - 772 W/m² -
1788373510 38.33° C 40% 1019.4 hPa 0 mm - 759 W/m² -
1788373206 37.22° C 41% 1019.5 hPa 0 mm - 755 W/m² -
1788372902 37.22° C 44% 1019.5 hPa 0 mm - 698 W/m² -
1788372596 36.67° C 44% 1019.6 hPa 0 mm - 790 W/m² -

* Rain latest hour (hover to see other rain measurements)
** Current wind speed in m/s (hover to see current wind gust speed)